This is the latest recevied weather packets stored in our database for station/object SQ3RAX-13. If no packets are shown the sender has not sent any weather packets the latest 10 day(s).
| Time | Temp. | Humidity | Pressure | Rain* | Wind** | Luminosity | Snow |
|---|---|---|---|---|---|---|---|
| 1777718099 | 23.33° C | 31% | 1023 hPa | 0 mm | - | - | - |
| 1777717499 | 23.33° C | 31% | 1023 hPa | 0 mm | - | - | - |
| 1777716899 | 23.33° C | 38% | 1023 hPa | 0 mm | - | - | - |
| 1777716299 | 23.33° C | 38% | 1023 hPa | 0 mm | - | - | - |
| 1777715699 | 23.33° C | 38% | 1023 hPa | 0 mm | - | - | - |
| 1777714499 | 22.78° C | 39% | 1023 hPa | 0 mm | - | - | - |
| 1777713899 | 22.22° C | 35% | 1024 hPa | 0 mm | - | - | - |
| 1777713299 | 21.67° C | 43% | 1024 hPa | 0 mm | - | - | - |
| 1777712699 | 21.67° C | 43% | 1024 hPa | 0 mm | - | - | - |
| 1777712099 | 21.67° C | 43% | 1024 hPa | 0 mm | - | - | - |
| 1777711499 | 21.67° C | 44% | 1024 hPa | 0 mm | - | - | - |
| 1777710899 | 20.56° C | 43% | 1024 hPa | 0 mm | - | - | - |
| 1777710299 | 20° C | 45% | 1024 hPa | 0 mm | - | - | - |
| 1777709699 | 20° C | 45% | 1024 hPa | 0 mm | - | - | - |
| 1777709099 | 20° C | 48% | 1024 hPa | 0 mm | - | - | - |
| 1777708499 | 20° C | 48% | 1024 hPa | 0 mm | - | - | - |
| 1777707299 | 18.33° C | 49% | 1024 hPa | 0 mm | - | - | - |
| 1777706699 | 18.33° C | 49% | 1024 hPa | 0 mm | - | - | - |
| 1777706099 | 16.67° C | 57% | 1024 hPa | 0 mm | - | - | - |
| 1777705499 | 17.22° C | 55% | 1024 hPa | 0 mm | - | - | - |
| 1777704899 | 16.67° C | 57% | 1024 hPa | 0 mm | - | - | - |
| 1777704299 | 16.11° C | 58% | 1024 hPa | 0 mm | - | - | - |
| 1777703699 | 15° C | 58% | 1024 hPa | 0 mm | - | - | - |
| 1777703099 | 15° C | 58% | 1024 hPa | 0 mm | - | - | - |
| 1777702499 | 13.89° C | 63% | 1024 hPa | 0 mm | - | - | - |
* Rain latest hour (hover to see other rain measurements)
** Current wind speed in m/s (hover to see current wind gust speed)